Tracking 18957 objects as of 24-Jan-2018
HD Live streaming from Space Station
objects crossing your sky now

NIMBUS 2 DEB

Track NIMBUS 2 DEB now!
10-day predictions


NORAD ID: 37892
Int'l Code: 1966-040AX
Perigee: 1,080.0 km
Apogee: 1,160.3 km
Inclination: 100.5 °
Period: 107.5 minutes
Semi major axis: 7491 km
RCS: 0.0071 m2 (small)
Launch date: May 15, 1966
Source: United States (US)
Launch site: AIR FORCE WESTERN TEST RANGE (AFWTR)

Note: This is SATELLITE DEBRIS
aabbcc
Your satellite tracking list
Your tracking list is empty




NASA's NSSDC Master Catalog

Two Line Element Set (TLE):
1 37892U 66040AX  18022.39014331 +.00000537 +00000-0 +10838-2 0  9999
2 37892 100.4976 175.7455 0053608 285.1216 103.3508 13.38988356950535
Source of the keplerian elements: AFSPC